Terug naar catalogus

O3B FM3

ActiefCommunicatieMEO
NORAD 40079·PAYLOAD·🇱🇺 Luxembourg

Gelanceerd Jul 10, 2014 vanaf Guiana Space Centre

Loading…

Volgende Passages (komende 24 uur)

TLE

VersSource: CelesTrak SupGP

Epoch: Sep 14, 2026, 00:00 UTC

1 40079C 14038A   26257.00000000  .00000000  00000+0  00000+0 0  2573
2 40079   0.0486 354.1769 0003534 221.7640  41.2556  5.00115892    17

Volg O3B FM3 in realtime met AllMySat

Download on the App Store